Location: Arrakis Observatory
(44.1122°N, 95.7153°W)
Time: 04:40:29
(UTC-05:00)

Iridium 35 - Visible Passes

Search period start: 26 May 2015 00:00
Search period end: 05 June 2015 00:00
Orbit: 776 x 779 km, 86.4° (Epoch: 25 May)

Date Brightness Start Highest point End Pass type
(mag) Time Alt. Az. Time Alt. Az. Time Alt. Az.
26 May 5.6 03:08:43 25° SSE 03:11:35 54° E 03:16:41 10° NNE visible
26 May 6.6 04:49:11 11° WSW 04:52:46 19° WNW 04:56:23 10° NNW visible
27 May 6.5 02:35:24 19° SE 02:38:12 31° E 02:42:46 10° NNE visible
27 May 5.9 04:15:53 19° SW 04:18:54 33° WNW 04:23:35 10° NNW visible
28 May 7.2 02:02:05 11° ESE 02:04:55 18° E 02:08:22 10° NE visible
28 May 5.2 03:42:34 28° SSW 03:45:12 59° W 03:50:22 10° N visible
29 May 5.1 03:09:14 33° S 03:11:39 78° E 03:16:53 10° N visible
29 May 7.0 04:50:28 10° W 04:53:10 14° WNW 04:55:36 10° NW visible
30 May 5.9 02:35:54 27° SE 02:38:12 43° E 02:43:09 10° NNE visible
30 May 6.4 04:16:23 16° WSW 04:19:11 24° WNW 04:23:19 10° NNW visible
31 May 6.7 02:02:33 18° ESE 02:04:51 25° E 02:09:04 10° NNE visible
31 May 5.6 03:43:02 26° SW 03:45:23 41° W 03:50:19 10° N visible
01 Jun 7.3 01:29:12 10° ESE 01:31:36 14° ENE 01:34:19 10° NE visible
01 Jun 5.0 03:09:41 37° SSW 03:11:45 75° W 03:16:59 10° N visible
02 Jun 5.3 02:36:19 37° SSE 02:38:14 62° E 02:43:24 10° N visible
02 Jun 6.8 04:16:47 12° WSW 04:19:32 17° WNW 04:22:48 10° NNW visible
03 Jun 6.2 02:02:56 26° ESE 02:04:50 34° E 02:09:32 10° NNE visible
03 Jun 6.1 03:43:25 22° WSW 03:45:37 29° WNW 03:50:09 10° NNW visible
04 Jun 6.9 01:29:34 16° ESE 01:31:31 20° E 01:35:16 10° NE visible
04 Jun 5.3 03:10:02 35° SW 03:11:53 52° W 03:17:00 10° N visible
